Sofiivka / Karlo-Marksove

Ukraine / Donetsk Region     48˚15′36″N   38˚09′31″E
temp.,
°C
wind,
m/s
gust,
m/s
humid.,
%
clouds,
%
prec.,
mm/h
press.,
hPa
HPBL,
m
29 november, sun
sun2923:00+1˚se5108399 0.0 1023272
02:00se599481 0.0 1023245
05:00+1˚se5109799 0.0 1023298
08:00+2˚se6109699 0.0 1024398
11:00+3˚sse61092100 0.0 1024422
14:00+5˚se61086100 0.0 1024430
17:00+5˚se6138998 0.0 1025505
20:00+4˚se7159299 0.0 1026494
30 november, mon
mon3023:00+4˚se6139489 0.0 1026443
02:00+4˚se6129495 0.0 1026511
05:00+4˚se61291100 0.0 1026601
08:00+4˚se71186100 0.0 1027637
11:00+5˚ese71073100 0.0 1026765
14:00+5˚ese71071100 0.0 1025895
17:00+5˚ese71275100 0.0 1025923
20:00+4˚ese71275100 0.0 1025754
1 december, tue
tue123:00+3˚ese61177100 0.0 1025656
02:00+1˚ese6137889 0.0 1026558
05:00ese714823 0.0 1026517
08:00ese7148111 0.0 1027531
11:00+2˚ese712718 0.0 1027654
14:00+2˚e7127322 0.0 1027712
17:00+1˚ese7127699 0.0 1027812
20:00e7117999 0.0 1028671
2 december, wed
wed223:00e7117897 0.0 1028680
02:00−1˚e7128398 0.1 1028531
05:00−1˚e7128498 0.1 1028501
08:00−1˚e7128498 0.2 1028537
11:00e71182100 0.1 1029526
14:00ese61178100 0.1 1028611
17:00ese6117896 0.0 1028635
20:00ese6127898 0.0 1029579
3 december, thu
thu323:00−1˚ese61179100 0.0 1029488
02:00−1˚ese61181100 0.0 1029449
05:00−1˚ese6128299 0.0 1029476
08:00−1˚ese7138799 0.6 1030481
11:00−1˚se61280100 0.2 1030561
14:00ese61080100 0.3 1029592
17:00−1˚ese6118099 0.0 1029510
20:00−1˚ese6127599 0.1 1029505